Location: Goncu�n�
(36.9517°N, 30.9617°E)
Time: 22:12:08
(UTC+00:00)

Daily predictions for brighter satellites

Satellite Brightness Start Highest point End
(mag) Time Altitude Azimuth Time Altitude Azimuth Time Altitude Azimuth
Cosmos 2263 Rocket 4.2 16:09:10 10° WSW 16:14:05 32° WNW 16:19:05 10° N
COSMO-SKYMED 1 3.0 16:11:10 10° N 16:15:30 69° WNW 16:19:48 10° SSW
Cosmos 1844 Rocket 2.8 16:13:05 10° S 16:18:28 54° ESE 16:23:53 10° NNE
Shenzhou-11 Module 0.9 16:18:17 10° WSW 16:20:23 75° SSE 16:22:29 10° ENE
NOSS 3-4 (A) 4.1 16:16:29 10° S 16:21:27 29° ESE 16:26:35 10° NE
NOSS 3-4 (C) 4.1 16:16:37 10° S 16:21:34 29° ESE 16:26:40 10° NE
Cosmos 372 Rocket 4.2 16:16:51 10° SSW 16:22:05 81° WNW 16:27:20 10° NNE
Cosmos 1939 Rocket 3.1 16:19:18 10° S 16:23:25 81° WSW 16:27:35 10° NNW
Cosmos 1844 3.9 16:20:13 10° S 16:25:40 49° ESE 16:31:06 10° NNE
USA 116 3.9 16:22:20 10° NNE 16:26:06 52° ESE 16:30:20 10° S
Meteor 1-12 Rocket 4.3 16:22:37 10° S 16:28:26 64° E 16:34:10 10° NNE
Cosmos 1842 4.3 16:25:47 10° NNW 16:29:33 50° W 16:33:18 10° S
Cosmos 1707 2.8 16:28:55 10° N 16:32:40 53° E 16:36:24 10° SSE
CZ-2C R/B 1.8 16:29:51 10° W 16:33:31 44° SSW 16:36:37 12° ESE
ISS -0.8 16:36:41 10° NNW 16:37:33 11° NNW 16:38:23 10° N
USA 186 4.0 16:39:33 11° ENE 16:39:33 11° ENE 16:40:16 10° NE
Cosmos 1300 Rocket 3.5 16:35:22 10° S 16:39:44 76° E 16:44:11 10° N
CENTAUR R/B 3.8 16:33:09 10° NNW 16:40:41 39° NE 16:47:33 14° ESE
Cosmos 2298 Rocket 4.2 16:37:28 10° SSW 16:42:47 79° WNW 16:48:08 10° NNE
Okean 1 Rocket 4.1 16:39:18 10° SE 16:42:56 25° E 16:46:35 10° NE
ATLAS 2AS CENTAUR R/B 3.3 16:36:12 10° S 16:43:34 46° ESE 16:51:03 10° NE
Sich 1 Rocket 4.4 16:39:14 10° SSW 16:43:39 58° W 16:48:10 10° N
CSL-04 Debris 4.2 16:40:28 10° SSE 16:45:46 63° ENE 16:51:05 10° N
CSL-04 Rocket 3.7 16:42:28 10° SSE 16:47:48 62° ENE 16:53:14 10° N
ATLAS 3B R/B 4.4 16:48:06 10° N 16:52:04 16° NE 16:55:19 12° ENE
BREEZE-M DEB (TANK) 3.4 16:50:41 10° WSW 16:53:26 66° NW 17:00:53 10° NE
Okean 2 Rocket 3.4 16:49:30 10° SSW 16:53:58 72° W 16:58:27 10° N
YAOGAN 1 2.8 16:50:38 10° S 16:54:55 70° WSW 16:59:15 10° NNW
Cosmos 1766 4.2 16:53:36 16° SE 16:55:49 26° E 16:59:08 10° NNE
Cosmos 1025 Rocket 2.9 16:56:01 10° N 17:00:25 80° E 17:04:49 10° S
Milstar 3 Cent rocket 3.4 16:52:54 10° WSW 17:00:42 35° S 17:03:49 21° SE
Cosmos 1125 Rocket 3.6 16:58:21 10° SSW 17:03:39 84° WNW 17:09:00 10° NNE
GOES 2 Rocket 4.3 17:02:49 10° WSW 17:06:24 26° S 17:07:57 21° SSE
Cosmos 1464 Rocket 4.4 17:01:15 10° SSW 17:07:19 66° W 17:13:29 10° N
Cosmos 2285 Rocket 3.9 17:03:18 10° SSW 17:09:35 82° ESE 17:15:57 10° NNE
USA 238 DEB 3.8 17:02:33 10° NNW 17:09:51 73° ENE 17:15:45 18° SE
Cosmos 1536 Rocket 3.5 17:05:29 10° N 17:09:57 75° E 17:14:25 10° SSE
USA 238 3.8 17:02:40 10° NNW 17:09:58 72° ENE 17:15:48 18° SE
CZ-2C R/B 3.4 17:05:23 10° S 17:10:38 72° WSW 17:16:13 10° NNW
Abrixas rocket 4.1 17:09:05 10° NNW 17:10:54 15° NNE 17:10:55 15° NNE
SJ-6B 4.2 17:12:53 22° NE 17:12:53 22° NE 17:14:59 10° NNE
SJ-11-01 4.3 17:07:19 10° S 17:12:01 83° WSW 17:16:45 10° NNW
CZ-4 R/B 3.3 17:09:55 10° SSW 17:13:43 32° W 17:17:30 10° NNW
Cosmos 1092 Rocket 4.2 17:10:03 10° N 17:15:58 46° E 17:19:34 23° SE
TSX-5 3.7 17:20:09 10° SSW 17:23:42 88° WNW 17:28:11 10° NNE
Cosmos 1674 2.5 17:20:47 10° N 17:24:37 72° E 17:25:25 52° SSE
ARGOS 3.1 17:20:27 10° SSE 17:25:48 88° ENE 17:31:13 10° NNW
MOS 1 Rocket 3.8 17:22:12 10° N 17:26:24 53° WNW 17:30:33 10° SSW
MOS 1 4.4 17:30:21 39° ESE 17:32:03 52° ENE 17:37:34 10° N
NOSS 3-2 (A) 4.3 17:26:39 10° NW 17:34:30 76° WSW 17:41:26 17° SSE
CZ-2C R/B 2.6 17:29:07 10° NNE 17:34:44 74° ESE 17:40:20 10° S
Cosmos 1048 Rocket 4.5 17:29:28 10° NNW 17:34:44 61° WSW 17:39:30 13° S
Cosmos 1733 3.4 17:38:59 60° NNE 17:38:59 60° NNE 17:42:11 10° N
Cosmos 2082 Rocket 4.1 17:37:35 10° NNE 17:39:26 14° NE 17:39:26 14° NE
DMSP B5D2-2 3.9 17:39:49 10° NNE 17:45:08 79° ESE 17:50:24 10° S
Cosmos 494 Rocket 4.1 17:42:31 10° NNW 17:47:47 74° WSW 17:49:48 38° S
Ariane Rocket 2.8 17:47:53 56° SSE 17:49:00 86° ENE 17:54:06 10° NNW
Cosmos 1805 4.4 17:46:16 10° SSW 17:49:58 43° W 17:53:44 10° N
H-2A R/B 3.3 17:45:33 10° SSW 17:50:07 37° W 17:54:50 10° NNW
USA 234 3.4 17:50:46 48° SE 17:50:46 48° SE 17:56:56 10° SSW
SL-08 RB Rocket 3.9 17:49:44 42° SSW 17:51:11 67° W 17:55:43 10° NNW
MetOp-A 4.0 17:58:57 77° SE 17:59:21 84° ENE 18:04:44 10° NNW
Cosmos 1269 Rocket 3.9 17:54:01 10° NNW 17:59:06 74° NE 17:59:06 74° NE
Cosmos 2278 Rocket 2.9 18:00:25 10° SSW 18:10:00 21° NNE 18:11:45 10° NNE
COSMOS 2406 3.7 18:01:19 10° NNW 18:05:51 47° NNE 18:05:51 47° NNE
CZ-2C R/B 3.9 18:10:37 10° WSW 18:10:59 11° WSW 18:10:59 11° WSW
NOSS 3-2 (C) 4.3 18:04:54 10° NW 18:12:43 69° WSW 18:16:08 40° S
Meteor 2-5 Rocket 4.2 18:11:12 10° NNW 18:16:50 60° W 18:18:15 46° SW
Meteor 1-24 Rocket 3.8 18:13:51 10° NNW 18:19:24 75° W 18:19:24 75° W
Resurs 01 Rocket 4.0 18:25:52 16° N 18:25:52 16° N 18:26:47 10° N
CENTAUR R/B 3.6 18:23:39 10° NW 18:31:49 57° WSW 18:34:46 41° SSW
Cosmos 1833 Rocket 3.7 18:26:45 10° NNW 18:30:12 37° N 18:30:12 37° N
ATLAS 2AS CENTAUR R/B 4.1 18:27:15 10° WSW 18:34:40 42° NW 18:42:05 10° NNE
ATLAS 3B R/B 3.1 18:37:07 10° NNW 18:42:35 54° N 18:42:35 54° N
Cosmos 2082 Rocket 4.4 19:19:41 10° NNW 19:21:17 20° NNW 19:21:17 20° NNW
